This demonstration page uses our WeatherBlox Daily Observations layout. Learn more.

39.92423, -83.80882

Hourly Observations for June 8, 2019

Temp ( °F °C ) Dew Point ( °F °C ) Humidity (%) Winds ( mph kmh ) Pressure ( in mb ) Visibility ( mi km ) Precip ( " mm )
12:56 am 00:56 Clear 67 19.4 57 13.9 71 71 ENE 13 20 29.92 1013 10 16.0934 0 0
1:56 am 01:56 Clear 66 18.9 56 13.3 70 70 ENE 13 20 29.92 1013 10 16.0934 0 0
2:56 am 02:56 Clear 65 18.3 57 13.9 76 76 ENE 15 24 29.91 1013 10 16.0934 0 0
3:56 am 03:56 Clear 65 18.3 57 13.9 76 76 ENE 14 22 29.91 1013 10 16.0934 0 0
4:56 am 04:56 Clear 64 17.8 58 14.4 81 81 E 10 17 29.92 1013 10 16.0934 0 0
5:56 am 05:56 Clear 64 17.8 59 15 84 84 E 10 17 29.93 1013 10 16.0934 0 0
6:56 am 06:56 Sunny 65 18.3 60 15.6 84 84 ENE 10 17 29.93 1014 10 16.0934 0 0
7:56 am 07:56 Sunny 67 19.4 62 16.7 84 84 E 13 20 29.95 1014 10 16.0934 0 0
8:56 am 08:56 Sunny 69 20.6 62 16.7 78 78 E 12 19 29.96 1014 10 16.0934 0 0
9:56 am 09:56 Partly Cloudy 70 21.1 62 16.7 76 76 E 17 28 29.96 1014 10 16.0934 0 0
10:56 am 10:56 Cloudy 72 22.2 63 17.2 73 73 E 15 24 29.96 1014 10 16.0934 0 0
11:56 am 11:56 Mostly Cloudy 75 23.9 65 18.3 71 71 E 14 22 29.96 1014 10 16.0934 0 0
12:56 pm 12:56 Cloudy 75 23.9 64 17.8 69 69 ESE 17 28 29.96 1015 10 16.0934 0 0
1:56 pm 13:56 Mostly Cloudy 75 23.9 64 17.8 69 69 E 22 35 29.96 1015 10 16.0934 0 0
3:56 pm 15:56 Cloudy with Light Rain 70 21.1 65 18.3 84 84 E 23 37 29.96 1015 10 16.0934 0 0.0254
4:56 pm 16:56 Cloudy with Light Rain 70 21.1 65 18.3 84 84 ESE 18 30 29.95 1014 10 16.0934 0 0.0254
5:42 pm 17:42 Cloudy 72 22 64 18 78 78 E 15 24 29.92 1013 10 16.0934 0 0.0254
5:56 pm 17:56 Cloudy 72 22.2 64 17.8 76 76 E 18 30 29.95 1014 10 16.0934 0 0.0254
6:11 pm 18:11 Cloudy 72 22 63 17 73 73 E 23 37 29.92 1013 10 16.0934 0 0
6:56 pm 18:56 Cloudy 72 22.2 64 17.8 76 76 E 14 22 29.95 1014 10 16.0934 0 0
7:56 pm 19:56 Cloudy 72 22.2 63 17.2 73 73 ESE 20 31 29.94 1014 10 16.0934 0 0
8:56 pm 20:56 Cloudy 71 21.7 62 16.7 73 73 E 18 30 29.95 1014 10 16.0934 0 0
9:56 pm 21:56 Cloudy 71 21.7 62 16.7 73 73 E 15 24 29.96 1015 10 16.0934 0 0
10:56 pm 22:56 Clear 69 20.6 61 16.1 76 76 E 14 22 29.96 1015 10 16.0934 0 0
11:56 pm 23:56 Mostly Cloudy 68 20 61 16.1 78 78 E 14 22 29.96 1015 10 16.0934 0 0

Powered by AerisWeather